Location: Chuathbaluk
(61.5726°N, 159.2454°W)
Time: 21:19:31
(UTC+00:00)

Max Valier Satellite - Pass Details

Date: 17 January 2021
Orbit: 488 x 504 km, 97.3° (Epoch: 25 February)

Event Time Altitude Azimuth Distance (km) Brightness Sun altitude
Rises 18:27:46 0° 27° (NNE) 2,614 ? -6.9°
Reaches altitude 10° 18:31:15 10° 62° (ENE) 1,726 ? -6.5°
Maximum altitude 18:32:31 11° 82° (E) 1,637 ? -6.4°
Drops below altitude 10° 18:33:46 10° 102° (ESE) 1,723 ? -6.3°
Sets 18:37:14 0° 137° (SE) 2,604 ? -5.9°
